Regional Weather Roundup
Issued by NWS Newport/Morehead, NC

Current Version | Previous Version | Graphics & Text | Print | Product List | Glossary On
Versions: 1 2 3 4 5 6 7 8 9 10 11 12 13 14 15 16 17 18 19 20 21 22 23 24 25 26 27 28 29 30 31 32 33 34 35 36 37 38 39 40 41 42 43 44 45 46 47 48 49 50
000 ASUS42 KMHX 102225 RWRMHX WEATHER ROUNDUP FOR EASTERN NORTH CAROLINA NATIONAL WEATHER SERVICE NEWPORT/MOREHEAD CITY NC 500 PM EST WED FEB 10 2016 NOTE: "FAIR" INDICATES FEW OR NO CLOUDS BELOW 12,000 FEET WITH NO SIGNIFICANT WEATHER AND/OR OBSTRUCTIONS TO VISIBILITY NCZ015>017-031-032-045>047-102-103-102300- NORTH COAST CITY SKY/WX TMP DP RH WIND PRES REMARKS EDENTON CLOUDY 41 19 41 W9 29.88R ELIZABETH CITY MOCLDY 39 19 44 W12 29.85R KITTY HAWK CLEAR 40 20 44 W10G18 29.84R MANTEO PTCLDY 39 20 47 W12 29.87R $$ NCZ045>047-081-094-103-104-102300- CENTRAL COAST CITY SKY/WX TMP DP RH WIND PRES REMARKS FRISCO CLEAR 40 22 48 W9 29.87R SWANQUARTER N/A 39 N/A N/A W10G23 29.85R $$ NCZ095-097-098-100-101-102300- SOUTHERN COAST CITY SKY/WX TMP DP RH WIND PRES REMARKS BEAUFORT CLOUDY 40 20 44 W12 29.90R CEDAR ISLAND N/A 39 N/A N/A W15G22 29.94R JACKSONVILLE CLOUDY 39 18 42 W17 29.92R PINEY ISLAND PTCLDY N/A N/A N/A W16 29.88R WILMINGTON CLOUDY 40 19 43 W13G25 29.94R $$ NCZ011>013-027>030-043-044-078>080-089-090>093-098-102300- COASTAL PLAIN CITY SKY/WX TMP DP RH WIND PRES REMARKS AHOSKIE CLOUDY 37 17 43 CALM 29.88R CLINTON MOCLDY 38 19 46 W9G17 29.95R ELIZABETHTOWN CLOUDY 38 16 40 W10G20 29.96R GOLDSBORO CLOUDY 39 16 38 W15 29.89R GREENVILLE CLOUDY 39 18 41 W5 29.91R HAVELOCK CLOUDY 41 18 39 W13G23 29.90R KENANSVILLE CLOUDY 37 17 44 W13G18 29.94R KINSTON MOCLDY 39 16 38 W6G16 29.91R NEW BERN CLOUDY 40 17 39 W8 29.91R RICHLANDS CLOUDY 37 16 41 SW10G16 29.93R ROCKY MOUNT MOCLDY 38 16 40 W12G21 29.89R WASHINGTON CLOUDY 38 17 42 W13 29.89R WHITEVILLE PTCLDY 37 15 40 W8G18 29.98R $$ AMZ130-135-150-152-154-156-158-170-250-252-270-ANZ085-086-088-633-658-670-102300- MARINE OBSERVATIONS STATION/POSITION TIME TEMP WIND PRES WAVE SWELL AIR SEA DIR/SP/G HT/PER HT/PER (UTC) (F) (DEG/KT/KT) (MB) (FT/S) (FT/S) CHESAPEAKE LIGHT 2200 40 270/ 12/ 14 1010.4 64 E VA BEACH 2150 39 49 250/ 14/ 17 1010.0 6/11 5/11 DUCK 2200 39 240/ 15/ 19 N/A 2 E DUCK 2111 44 N/A 3/13 3/13 OREGON INLET 2200 40 44 270/ 13/ 19 N/A 13E OREGON INLT 2200 47 N/A 5/12 3/12 HATTERAS CG 2200 40 49 270/ 11/ 15 N/A DIAMOND BUOY 2150 42 72 290/ 16/ 21 1011.4 6/13 3/13 CAPE LOOKOUT NOT AVBL BEAUFORT LAB 2200 41 46 300/ 10/ 14 N/A 30 SE NEW RVR IN 2108 43 59 1011.8 30 SE NEW RVR IN 2125 59 N/A 7/10 2/11 27 SE WRIGHTSVLE 2108 43 60 280/ 21/ 29 1010.8 5 SE WRIGHTSVLE 2108 42 51 290/ 19/ 25 1013.2 225 S CAPE HAT 2150 56 68 260/ 29/ 37 N/A 15/11 11/11 41 SE CHARLESTON 2150 44 63 270/ 25/ 35 1015.6 7/ 7 2/15 $$

USA.gov is the U.S. government's official web portal to all federal, state and local government web resources and services.